This is the latest recevied weather packets stored in our database for station/object KE8WMS. If no packets are shown the sender has not sent any weather packets the latest 10 day(s).
| Time | Temp. | Humidity | Pressure | Rain* | Wind** | Luminosity | Snow |
|---|---|---|---|---|---|---|---|
| 1777681099 | 5.56° C | 87% | 1011.4 hPa | 0 mm | - | 4 W/m² | - |
| 1777680797 | 5.56° C | 87% | 1011.5 hPa | 0 mm | - | 7 W/m² | - |
| 1777680494 | 5.56° C | 87% | 1011.4 hPa | 0 mm | - | 9 W/m² | - |
| 1777680192 | 5.56° C | 87% | 1011.4 hPa | 0 mm | - | 12 W/m² | - |
| 1777679888 | 5.56° C | 86% | 1011.4 hPa | 0 mm | - | 15 W/m² | - |
| 1777679584 | 6.11° C | 85% | 1011 hPa | 0 mm | - | 18 W/m² | - |
| 1777679279 | 6.11° C | 81% | 1010.9 hPa | 0 mm | - | 22 W/m² | - |
| 1777678977 | 6.11° C | 80% | 1010.9 hPa | 0 mm | - | 27 W/m² | - |
| 1777678675 | 6.11° C | 79% | 1011 hPa | 0 mm | - | 27 W/m² | - |
| 1777678372 | 6.67° C | 79% | 1011.2 hPa | 0 mm | - | 26 W/m² | - |
| 1777678068 | 6.67° C | 78% | 1011.1 hPa | 0 mm | - | 29 W/m² | - |
| 1777677765 | 6.67° C | 78% | 1011.1 hPa | 0 mm | - | 34 W/m² | - |
| 1777677463 | 7.22° C | 78% | 1011.2 hPa | 0 mm | - | 43 W/m² | - |
| 1777677161 | 7.22° C | 78% | 1011.7 hPa | 0 mm | - | 64 W/m² | - |
| 1777676859 | 7.22° C | 77% | 1011.7 hPa | 0 mm | - | 70 W/m² | - |
| 1777676557 | 7.22° C | 78% | 1011.9 hPa | 0 mm | - | 93 W/m² | - |
| 1777676254 | 7.22° C | 76% | 1011.8 hPa | 0 mm | - | 77 W/m² | - |
| 1777675951 | 7.22° C | 79% | 1011.9 hPa | 0 mm | - | 72 W/m² | - |
| 1777675648 | 6.67° C | 78% | 1011.9 hPa | 0 mm | - | 89 W/m² | - |
| 1777675346 | 7.22° C | 78% | 1012 hPa | 0 mm | - | 86 W/m² | - |
| 1777675041 | 7.22° C | 79% | 1011.9 hPa | 0 mm | - | 86 W/m² | - |
| 1777674738 | 7.22° C | 80% | 1011.8 hPa | 0 mm | - | 94 W/m² | - |
| 1777674434 | 6.67° C | 80% | 1011.8 hPa | 0 mm | - | 105 W/m² | - |
| 1777674131 | 6.67° C | 78% | 1011.7 hPa | 0 mm | - | 109 W/m² | - |
| 1777673828 | 7.22° C | 78% | 1011.5 hPa | 0 mm | - | 111 W/m² | - |
* Rain latest hour (hover to see other rain measurements)
** Current wind speed in m/s (hover to see current wind gust speed)